Stations météo

Publicité
Kielder Castle, Grande-Bretagne (99186): Température de l'air & dewpoint: 11.11.2018 19:00:00 - 17.11.2018 19:00:00 (GMT)Kielder Castle, Grande-Bretagne (99186): Température de l'air -20cm & Température de l'air -100cm: 11.11.2018 19:00:00 - 17.11.2018 19:00:00 (GMT)Kielder Castle, Grande-Bretagne (99186): Quantités de précipitations: 11.11.2018 19:00:00 - 17.11.2018 19:00:00 (GMT)
Date & Time tt [°C] td [°C] tt -20cm [°C] tt -100cm [°C] rr [mm]
17.11.2018 19:00:00 - - - - -
17.11.2018 18:00:00 7,4 5,8 - - 0,0
17.11.2018 17:00:00 7,3 5,8 - - 0,0
17.11.2018 16:00:00 7,0 5,4 - - 0,0
17.11.2018 15:00:00 7,3 5,3 - - 0,0
17.11.2018 14:00:00 7,6 5,1 - - 0,0
17.11.2018 13:00:00 7,8 5,2 - - 0,0
17.11.2018 12:00:00 7,2 5,1 - - 0,0
17.11.2018 11:00:00 6,1 4,6 - - 0,0
17.11.2018 10:00:00 5,8 4,5 - - 0,0
17.11.2018 09:00:00 5,5 4,1 8,5 9,0 0,0
17.11.2018 08:00:00 5,3 3,7 - - 0,0
17.11.2018 07:00:00 5,3 3,7 - - 0,0
17.11.2018 06:00:00 5,4 3,8 - - 0,0
17.11.2018 05:00:00 5,4 3,9 - - 0,0
17.11.2018 04:00:00 5,9 4,2 - - 0,0
17.11.2018 03:00:00 6,2 4,6 - - 0,0
17.11.2018 02:00:00 7,3 5,5 - - 0,0
17.11.2018 01:00:00 8,3 6,5 - - 0,0
17.11.2018 00:00:00 9,5 7,7 - - 0,0
16.11.2018 23:00:00 9,9 8,7 - - 0,0
16.11.2018 22:00:00 9,9 8,9 - - 0,0
16.11.2018 21:00:00 9,8 8,6 - - 0,0
16.11.2018 20:00:00 9,8 8,4 - - 0,0
16.11.2018 19:00:00 9,9 8,6 - - 0,0
16.11.2018 18:00:00 10,1 8,7 - - 0,0
16.11.2018 17:00:00 10,4 9,0 - - 0,0
16.11.2018 16:00:00 10,9 9,4 - - 0,0
16.11.2018 15:00:00 11,6 9,5 - - 0,0
16.11.2018 14:00:00 12,2 9,6 - - 0,0
16.11.2018 13:00:00 12,9 9,7 - - 0,0
16.11.2018 12:00:00 11,9 9,9 - - 0,0
16.11.2018 11:00:00 11,1 9,4 - - 0,0
16.11.2018 10:00:00 10,7 10,7 - - 0,0
16.11.2018 09:00:00 8,6 8,6 8,0 9,0 0,0
16.11.2018 08:00:00 8,8 8,8 - - 0,0
16.11.2018 07:00:00 8,6 8,6 - - 0,0
16.11.2018 06:00:00 8,3 8,2 - - 0,0
16.11.2018 05:00:00 8,2 8,0 - - 0,0
16.11.2018 04:00:00 8,6 8,2 - - 0,0
16.11.2018 03:00:00 9,2 8,7 - - 0,0
16.11.2018 02:00:00 9,5 9,0 - - 0,0
16.11.2018 01:00:00 9,6 9,1 - - 0,0
16.11.2018 00:00:00 9,1 8,2 - - 0,0
15.11.2018 23:00:00 10,0 8,8 - - 0,0
15.11.2018 22:00:00 8,5 7,7 - - 0,0
15.11.2018 21:00:00 9,1 8,8 - - 0,0
15.11.2018 20:00:00 8,0 7,4 - - 0,0
15.11.2018 19:00:00 10,5 8,6 - - 0,0
15.11.2018 18:00:00 10,7 8,3 - - 0,0
15.11.2018 17:00:00 10,4 8,1 - - 0,0
15.11.2018 16:00:00 11,1 8,3 - - 0,0
15.11.2018 15:00:00 10,9 7,9 - - 0,0
15.11.2018 14:00:00 10,2 7,4 - - 0,0
15.11.2018 13:00:00 11,9 7,0 - - 0,0
15.11.2018 12:00:00 9,8 7,5 - - 0,0
15.11.2018 11:00:00 6,9 6,4 - - 0,0
15.11.2018 10:00:00 4,4 4,2 - - 0,0
15.11.2018 09:00:00 2,7 2,7 8,2 8,9 0,0
15.11.2018 08:00:00 2,6 2,5 - - 0,0
15.11.2018 07:00:00 3,2 3,1 - - 0,0
15.11.2018 06:00:00 4,6 4,5 - - 0,0
15.11.2018 05:00:00 5,8 5,8 - - 0,0
15.11.2018 04:00:00 5,4 5,3 - - 0,0
15.11.2018 03:00:00 5,2 5,1 - - 0,0
15.11.2018 02:00:00 4,7 4,5 - - 0,2
15.11.2018 01:00:00 5,1 4,6 - - 0,0
15.11.2018 00:00:00 7,2 6,2 - - 0,0
14.11.2018 23:00:00 8,3 6,8 - - 0,0
14.11.2018 22:00:00 9,1 7,4 - - 0,0
14.11.2018 21:00:00 9,0 7,4 - - 0,0
14.11.2018 20:00:00 10,0 8,0 - - 0,0
14.11.2018 19:00:00 10,4 8,7 - - 0,0
14.11.2018 18:00:00 10,7 8,9 - - 0,0
14.11.2018 17:00:00 11,1 9,2 - - 0,0
14.11.2018 16:00:00 11,4 10,0 - - 0,0
14.11.2018 15:00:00 11,4 10,3 - - 0,0
14.11.2018 14:00:00 11,6 10,5 - - 0,0
14.11.2018 13:00:00 11,4 10,8 - - 1,2
14.11.2018 12:00:00 11,1 10,9 - - 2,8
14.11.2018 11:00:00 10,5 10,4 - - 1,8
14.11.2018 10:00:00 10,2 9,9 - - 4,2
14.11.2018 09:00:00 9,7 9,3 8,2 9,0 1,2
14.11.2018 08:00:00 9,1 8,7 - - 2,0
14.11.2018 07:00:00 8,9 8,3 - - 1,0
14.11.2018 06:00:00 8,8 8,1 - - 0,6
14.11.2018 05:00:00 8,6 7,9 - - 0,6
14.11.2018 04:00:00 8,7 7,9 - - 0,2
14.11.2018 03:00:00 8,5 7,7 - - 0,0
14.11.2018 02:00:00 9,2 6,9 - - 0,0
14.11.2018 01:00:00 9,1 6,7 - - 0,0
14.11.2018 00:00:00 9,1 6,9 - - 0,0
13.11.2018 23:00:00 8,7 7,1 - - 0,0
13.11.2018 22:00:00 8,5 7,3 - - 0,0
13.11.2018 21:00:00 8,0 6,9 - - 0,0
13.11.2018 20:00:00 8,0 6,9 - - 0,2
13.11.2018 19:00:00 8,3 6,9 - - 0,0
13.11.2018 18:00:00 8,3 6,7 - - 0,0
13.11.2018 17:00:00 8,5 6,8 - - 0,0
13.11.2018 16:00:00 8,5 6,7 - - 0,0
13.11.2018 15:00:00 8,5 7,1 - - 0,0
13.11.2018 14:00:00 8,5 6,2 - - 0,0
13.11.2018 13:00:00 8,4 6,0 - - 0,0
13.11.2018 12:00:00 8,1 5,8 - - 0,0
13.11.2018 11:00:00 8,2 6,5 - - 0,0
13.11.2018 10:00:00 7,6 6,4 - - 0,0
13.11.2018 09:00:00 7,7 7,0 8,0 9,0 0,4
13.11.2018 08:00:00 7,7 7,0 - - 0,0
13.11.2018 07:00:00 7,6 7,0 - - 0,2
13.11.2018 06:00:00 7,8 7,0 - - 0,2
13.11.2018 05:00:00 7,7 6,9 - - 0,0
13.11.2018 04:00:00 7,5 6,8 - - 0,0
13.11.2018 03:00:00 7,2 6,9 - - 0,4
13.11.2018 02:00:00 7,0 6,6 - - 0,8
13.11.2018 01:00:00 6,9 6,4 - - 0,6
13.11.2018 00:00:00 7,0 6,1 - - 0,2
12.11.2018 23:00:00 7,2 6,1 - - 0,0
12.11.2018 22:00:00 6,9 5,6 - - 0,0
12.11.2018 21:00:00 7,2 6,1 - - 0,0
12.11.2018 20:00:00 7,2 6,6 - - 2,4
12.11.2018 19:00:00 7,2 6,8 - - 1,8
12.11.2018 18:00:00 6,6 6,1 - - 0,2
12.11.2018 17:00:00 6,3 5,3 - - 0,0
12.11.2018 16:00:00 7,0 5,9 - - 0,0
12.11.2018 15:00:00 7,3 6,2 - - 1,2
12.11.2018 14:00:00 7,8 6,6 - - 1,4
12.11.2018 13:00:00 9,0 7,2 - - 0,6
12.11.2018 12:00:00 8,6 6,9 - - 0,2
12.11.2018 11:00:00 9,4 6,7 - - 0,0
12.11.2018 10:00:00 8,3 6,6 - - 0,0
12.11.2018 09:00:00 7,7 6,4 7,9 9,2 0,0
12.11.2018 08:00:00 7,1 6,1 - - 0,0
12.11.2018 07:00:00 7,3 6,2 - - 0,0
12.11.2018 06:00:00 7,6 6,5 - - 0,0
12.11.2018 05:00:00 7,5 6,7 - - 0,2
12.11.2018 04:00:00 7,3 6,7 - - 0,4
12.11.2018 03:00:00 7,3 6,4 - - 0,4
12.11.2018 02:00:00 7,3 6,4 - - 0,2
12.11.2018 01:00:00 7,0 6,1 - - 0,0
12.11.2018 00:00:00 6,6 5,6 - - 0,0
11.11.2018 23:00:00 6,6 6,0 - - 1,6
11.11.2018 22:00:00 5,9 5,4 - - 0,2
11.11.2018 21:00:00 6,0 5,8 - - 2,0
11.11.2018 20:00:00 4,2 4,2 - - 0,6
11.11.2018 19:00:00 3,8 3,6 - - 0,0

tt = Température de l'air
td = dewpoint
tt -20cm = Température de l'air -20cm
tt -100cm = Température de l'air -100cm
rr = Quantités de précipitations

stations d'obs. à proximité